"Pseudo-MPEC" for P110Jj3

Created 2020 May 26 13:07:17 UT using Find_Orb

Click here for an explanation of pseudo-MPECs

 
 Astrometry: 
     P110Jj3  C2020 05 21c.-\mNl`EFF;^h)v1sAstrometry4redacted;LSWuCKf5q4H8Q0F51
     P110Jj3  C2020 05 21F3click#tYdsZdiRL:=FNiS+wW*2(herer4tID@7npfh**WH\)cyF51
     P110Jj3  C2020 05 21)kB]w`Z.DFjZdeX_forV4SexplanationMTAW^RZ@6ws?hoV?U6MF51
     P110Jj3 ^C2020 05 22.31861013 59 08.207-37 40 23.33   ~5M8q 20.69GVNEOCP568
     P110Jj3 ^C2020 05 22.31955713 59 08.082-37 40 29.91   ~5M8q 20.97GVNEOCP568

Station data:
(568) Mauna Kea  (N19.826116 W155.472200)  US/Hawaii.
(F51) Pan-STARRS 1, Haleakala  (N20.707235 W156.255910)  US/Hawaii.
   Observers N. Primak, A. Schultz, S. Watters, J. Thiel, T. Goggia. Measurer
   PS1 Science Consortium. 1.8-m Ritchey-Chrétien + CCD.

Orbital elements:  P110Jj3
   Perihelion 2020 Jun 29.464666 +/- 0.215 TT = 11:09:07 (JD 2459029.964666)
Epoch 2020 May 22.0 TT = JDT 2458991.5   Earth MOID: 0.0221   Ma: 0.0300
M 339.72165419 +/- 0.49             (J2000 ecliptic)          AutoNEOCP
n   0.52719412 +/- 0.014            Peri.  275.80010 +/- 7
a   1.51759425 +/- 0.0269           Node     7.08781 +/- 6
e   0.3490875 +/- 0.0136            Incl.    1.47720 +/- 0.13
P   1.87/682.85d           H 26.2   G  0.15   U  9.9  
q 0.98782092 +/- 0.0037    Q 2.04736759 +/- 0.0571
From 5 observations 2020 May 21-22 (24.1 hr); mean residual 0".09
Residuals in arcseconds: 
200521 F51  .04-  .16+    200521 F51  .01-  .05+    200522 568  .02+  .00     
200521 F51  .04+  .21-    200522 568  .02-  .00     

Ephemerides (geocentric):
Date (UTC) HH   RA              Dec         delta   r     elong  mag " sig PA
---- -- -- --  -------------   -----------  ------ ------ -----  --- ---- ---
2020 05 26 13  13 54 10.968   -48 15 59.08  .04090 1.0453 141.1 20.8  233   6
2020 05 26 14  13 54 07.075   -48 24 15.45  .04078 1.0452 141.0 20.8  239   6
2020 05 26 15  13 54 03.151   -48 32 34.75  .04066 1.0451 140.9 20.8  245   6
2020 05 26 16  13 53 59.195   -48 40 56.98  .04053 1.0449 140.8 20.8  251   6
2020 05 26 17  13 53 55.206   -48 49 22.16  .04041 1.0448 140.7 20.8  257   6
2020 05 26 18  13 53 51.185   -48 57 50.32  .04029 1.0447 140.6 20.8  263   6
2020 05 26 19  13 53 47.130   -49 06 21.48  .04017 1.0445 140.5 20.8  269   6
2020 05 26 20  13 53 43.040   -49 14 55.65  .04005 1.0444 140.4 20.8  275   6
2020 05 26 21  13 53 38.915   -49 23 32.86  .03993 1.0443 140.3 20.8  281   6
2020 05 26 22  13 53 34.755   -49 32 13.13  .03981 1.0441 140.2 20.8  288   6
2020 05 26 23  13 53 30.559   -49 40 56.48  .03969 1.0440 140.1 20.8  295   6
2020 05 27 00  13 53 26.326   -49 49 42.93  .03957 1.0439 140.0 20.8  301   6
2020 05 27 01  13 53 22.055   -49 58 32.50  .03945 1.0437 139.9 20.8  308   6
2020 05 27 02  13 53 17.745   -50 07 25.21  .03933 1.0436 139.8 20.8  315   6
2020 05 27 03  13 53 13.397   -50 16 21.08  .03921 1.0435 139.7 20.8  322   6
2020 05 27 04  13 53 09.008   -50 25 20.14  .03909 1.0434 139.6 20.8  329   6
2020 05 27 05  13 53 04.579   -50 34 22.40  .03897 1.0432 139.4 20.8  337   6
2020 05 27 06  13 53 00.109   -50 43 27.89  .03885 1.0431 139.3 20.8  344   6
2020 05 27 07  13 52 55.596   -50 52 36.63  .03873 1.0430 139.2 20.8  352   6
2020 05 27 08  13 52 51.040   -51 01 48.64  .03861 1.0428 139.1 20.8  359   6
2020 05 27 09  13 52 46.440   -51 11 03.94  .03850 1.0427 139.0 20.8  367   6
2020 05 27 10  13 52 41.795   -51 20 22.55  .03838 1.0426 138.9 20.8  375   6
2020 05 27 11  13 52 37.105   -51 29 44.50  .03826 1.0424 138.8 20.8  383   6
2020 05 27 12  13 52 32.368   -51 39 09.80  .03815 1.0423 138.7 20.8  391   6
2020 05 27 13  13 52 27.583   -51 48 38.49  .03803 1.0422 138.6 20.8  399   6
2020 05 27 14  13 52 22.750   -51 58 10.57  .03791 1.0420 138.4 20.7  408   6
2020 05 27 15  13 52 17.867   -52 07 46.08  .03780 1.0419 138.3 20.7  416   6
2020 05 27 16  13 52 12.933   -52 17 25.03  .03768 1.0418 138.2 20.7  425   6
2020 05 27 17  13 52 07.948   -52 27 07.45  .03757 1.0416 138.1 20.7  434   6
2020 05 27 18  13 52 02.909   -52 36 53.36  .03745 1.0415 138.0 20.7  443   6
2020 05 27 19  13 51 57.817   -52 46 42.78  .03734 1.0414 137.9 20.7  452   6
2020 05 27 20  13 51 52.670   -52 56 35.73  .03722 1.0413 137.7 20.7  461   6
2020 05 27 21  13 51 47.467   -53 06 32.24  .03711 1.0411 137.6 20.7  470   6
2020 05 27 22  13 51 42.206   -53 16 32.33  .03700 1.0410 137.5 20.7  480   6
2020 05 27 23  13 51 36.887   -53 26 36.01  .03688 1.0409 137.4 20.7  490   6
2020 05 28 00  13 51 31.507   -53 36 43.32  .03677 1.0407 137.3 20.7  499   6
2020 05 28 01  13 51 26.066   -53 46 54.28  .03666 1.0406 137.1 20.7  509   6
2020 05 28 02  13 51 20.563   -53 57 08.90  .03654 1.0405 137.0 20.7  519   6
2020 05 28 03  13 51 14.996   -54 07 27.21  .03643 1.0404 136.9 20.7  530   6
2020 05 28 04  13 51 09.363   -54 17 49.23  .03632 1.0402 136.8 20.7  540   6
2020 05 28 05  13 51 03.663   -54 28 14.99  .03621 1.0401 136.7 20.7  551   6
2020 05 28 06  13 50 57.894   -54 38 44.51  .03610 1.0400 136.5 20.7  561   6
2020 05 28 07  13 50 52.056   -54 49 17.80  .03599 1.0398 136.4 20.7  572   6
2020 05 28 08  13 50 46.146   -54 59 54.90  .03588 1.0397 136.3 20.7  583   6
2020 05 28 09  13 50 40.162   -55 10 35.82  .03577 1.0396 136.2 20.7  594   6
2020 05 28 10  13 50 34.104   -55 21 20.58  .03566 1.0395 136.0 20.7  606   6
2020 05 28 11  13 50 27.969   -55 32 09.22  .03555 1.0393 135.9 20.7  617   6
2020 05 28 12  13 50 21.755   -55 43 01.74  .03544 1.0392 135.8 20.7  629   6